Showing default

CATSAT, 60246

Orbit data source: Space-Track

CATSAT, 60246 is a payload satellite owned by U. Arizona (US) in SSO that was launched on Thu, 04 Jul 2024 UTC via an FIREFLY ALPHA launch vehicle from the Air Force Western Test Range (AFWTR). Payload-class satellites include a variety of spacecraft equipped with specific instruments for various scientific and technological missions. These include communications satellites like Starlink; space stations such as the ISS; scientific satellites like the Hubble; Earth observation satellites from companies like Planet Labs, Umbra, and HawkEye 360; GPS; miniature CubeSats for education and research; and military/defense satellites.

Not visible in the next 10 days
Identifier
60246, 2024-125J
Orbit
SSO
Country
Flag of USUS
Related business
Manufacturer
U. Arizona
Mission
Operational Amateur Technology
Bus & Motor
CUBESAT 6U, Unknown motor
Mass
12 kg wet, ~12 kg dry
Launch date (UTC)
2024-07-04 (2 years ago)
Launch vehicle
FIREFLY ALPHA
Launch site
Air Force Western Test Range (AFWTR)
Object type
Payload
Rocket body
Debris
Shape & HBR
Box + Inf Sphere + 1 Pan, 0.4 m
Radar Cross Section
0.050 m², Medium (>0.1 m² and < 1m²)

Expand to show TLE details & history
Last TLE update: 9 hours ago

TLE from 9 hours ago
0 CATSAT
1 60246U 24125J   26265.12483549  .00102417  00000-0  73819-3 0  9995
2 60246  97.1937 119.7766 0015310 170.9306 189.2238 15.73091574122559
Epoch: 2026-09-22T02:59Z
TLE epoch observation values (Epoch: 2026-09-22T02:59:45.786Z)
Latitude
-0.00001°
Longitude
73.84102°
Altitude
363.406 km
Speed
7.685 km/s
True Right ascension
07h 59m 06s
True Declination
0° 00' 00"
Sunlit
Object was in daylight at epoch
Visualization orbit readout
Latitude
Unknown
Longitude
Unknown
Altitude
Unknown
Speed
Unknown
Apparent Right ascension
Unknown
Apparent Declination
Unknown
Sunlit
N/A
Visualization observer readout
Local Sidereal Time
05:10:12
Azimuth
Unknown
Elevation
Unknown
Doppler factor
Unknown
Orbital elements
Apogee altitude
357.25 km
Perigee altitude
336.657 km
Semi-major axis
6,725.091 km
Eccentricity
0.00153
Inclination
97.1937°
RAAN
119.7766°
Arg. of periapsis
170.9306°
True anomaly
189.19573°
Mean anomaly
189.2238°
Eccentric anomaly
189.20976°
Mean motion
3.93546 °/min
Orbital period
91.48 mins
BSTAR
0.00073819
Loading maneuver chart data...
Computing Atmospheric mass density...
Loading historical data...
Loading historical data...
Loading historical data...
Loading historical data...
Loading historical data...
Loading historical data...
Loading historical data...

Documentation

Showing up to 5 results
|